Wautoma, WI

4:30 AM CST on November 22, 2019 (GMT -0600)
Wautoma

Weather History for KY50 - October, 2019

Change the Weather History Date:

Monday, October 21, 2019

  Actual Average (KPCZ) Record (KPCZ)
Temperature  
Mean Temperature 55 °F -  
Max Temperature 64 °F 56 °F 83 °F (1953)
Min Temperature 46 °F 37 °F 16 °F (1960)
Degree Days  
Heating Degree Days 10    
Growing Degree Days 5 (Base 50)    
Moisture  
Dew Point 48 °F    
Average Humidity 81    
Maximum Humidity 96    
Minimum Humidity 57    
Precipitation  
Precipitation 0.24 in - - ()
Sea Level Pressure  
Sea Level Pressure 29.45 in    
Wind  
Wind Speed 10 mph ()    
Max Wind Speed 17 mph    
Max Gust Speed 28 mph    
Visibility 7.7 miles    
Events Rain    
Averages and records for this station are not official NWS values.
T = Trace of Precipitation, MM = Missing Value Source: Averaged Metar Reports

Daily Weather History Graph

Daily Weather History Graph

Search for Another Location

Airport or City:

Astronomy

Oct. 21, 2019 Rise Set
Actual Time 7:19 AM CDT 6:03 PM CDT
Civil Twilight 6:49 AM CDT 6:33 PM CDT
Nautical Twilight 6:16 AM CDT 7:06 PM CDT
Astronomical Twilight 5:42 AM CDT 7:40 PM CDT
Moon No Moon Rise 2:44 PM CDT (10/21)
Length of Visible Light 11h 43m
Length of Day
10h 44m
Waning Gibbous, 48% of the Moon is Illuminated
Oct 21
Waning Gibbous
Oct 27
New
Nov 4
First Quarter
Nov 12
Full
Nov 19
Last Quarter

Hourly Weather History & Observations

Time (CDT) Temp. Dew Point Humidity Pressure Visibility Wind Dir Wind Speed Gust Speed Precip Events Conditions
12:56 AM 48.0 °F 42.1 °F 80% 29.88 in 3.0 mi ENE 5.8 mph - N/A   Haze
1:56 AM 46.9 °F 41.0 °F 80% 29.85 in 6.0 mi East 5.8 mph - N/A   Haze
2:56 AM 48.0 °F 39.9 °F 74% 29.81 in 9.0 mi East 10.4 mph - N/A   Partly Cloudy
3:56 AM 46.9 °F 41.0 °F 80% - 6.0 mi North - - N/A   Haze
4:56 AM 48.0 °F 43.0 °F 83% 29.74 in 4.0 mi East 6.9 mph - N/A   Haze
5:56 AM 48.9 °F 45.0 °F 86% 29.70 in 10.0 mi East 8.1 mph - N/A   Overcast
6:56 AM 51.1 °F 46.9 °F 86% 29.64 in 10.0 mi East 10.4 mph - N/A   Overcast
7:56 AM 52.0 °F 48.0 °F 86% 29.59 in 10.0 mi East 12.7 mph 18.4 mph N/A   Overcast
8:56 AM 53.1 °F 48.9 °F 86% 29.53 in 10.0 mi East 16.1 mph 23.0 mph N/A   Overcast
9:56 AM 54.0 °F 48.9 °F 83% 29.44 in 10.0 mi East 16.1 mph 24.2 mph 0.00 in   Overcast
10:44 AM 53.6 °F 50.0 °F 88% 29.42 in 6.0 mi East 12.7 mph 21.9 mph 0.00 in Rain Rain
10:56 AM 54.0 °F 50.0 °F 86% 29.41 in 6.0 mi East 10.4 mph 23.0 mph 0.02 in Rain Rain
11:39 AM 53.6 °F 51.8 °F 94% 29.33 in 4.0 mi East 12.7 mph 19.6 mph 0.10 in Rain Rain
11:56 AM 53.1 °F 52.0 °F 96% 29.31 in 3.0 mi East 17.3 mph 23.0 mph 0.15 in Rain Light Rain
12:09 PM 53.6 °F 51.8 °F 94% 29.31 in 2.5 mi East 12.7 mph 20.7 mph 0.01 in Rain Rain
12:18 PM 53.6 °F 51.8 °F 94% 29.30 in 3.0 mi East 15.0 mph 24.2 mph 0.03 in Rain Rain
12:56 PM 55.0 °F 54.0 °F 96% 29.28 in 8.0 mi SE 15.0 mph 20.7 mph 0.07 in Rain Rain
1:56 PM 57.9 °F 55.9 °F 93% 29.26 in 10.0 mi South 12.7 mph 20.7 mph N/A   Overcast
2:48 PM 60.8 °F 55.4 °F 82% 29.26 in 10.0 mi SSW 15.0 mph 20.7 mph N/A   Overcast
2:56 PM 62.1 °F 55.9 °F 80% 29.26 in 10.0 mi South 12.7 mph 20.7 mph N/A   Mostly Cloudy
3:22 PM 62.6 °F 53.6 °F 72% 29.27 in 10.0 mi SSW 13.8 mph 18.4 mph N/A   Scattered Clouds
3:56 PM 64.0 °F 50.0 °F 60% 29.26 in 10.0 mi South 13.8 mph 21.9 mph N/A   Mostly Cloudy
4:56 PM 61.0 °F 46.9 °F 60% 29.28 in 10.0 mi South 12.7 mph 18.4 mph N/A   Partly Cloudy
5:56 PM 57.9 °F 43.0 °F 58% 29.32 in 10.0 mi SSW 15.0 mph 27.6 mph N/A   Clear
6:56 PM 55.0 °F 39.9 °F 57% 29.34 in 10.0 mi SSW 16.1 mph 24.2 mph N/A   Clear
7:56 PM 53.1 °F 39.9 °F 61% 29.37 in 10.0 mi SSW 11.5 mph 23.0 mph N/A   Overcast